Woodland, NC

10:43 PM EDT on August 28, 2016 (GMT -0400)
Tri County

Weather History for KASJ - January, 2013

Change the Weather History Date:

Saturday, January 19, 2013

  Actual Average (KEMV) Record (KEMV)
Temperature  
Mean Temperature 38 °F -  
Max Temperature 52 °F 46 °F 68 °F (1986)
Min Temperature 25 °F 28 °F 12 °F (2005)
Degree Days  
Heating Degree Days 26    
Moisture  
Dew Point 27 °F    
Average Humidity 76    
Maximum Humidity 92    
Minimum Humidity 33    
Precipitation  
Precipitation 0.00 in - - ()
Sea Level Pressure  
Sea Level Pressure 30.36 in    
Wind  
Wind Speed 0 mph (SSW)    
Max Wind Speed 6 mph    
Max Gust Speed -    
Visibility 10 miles    
Events      
Averages and records for this station are not official NWS values.
T = Trace of Precipitation, MM = Missing Value Source: NWS Daily Summary

Daily Weather History Graph

Daily Weather History Graph

Search for Another Location

Airport or City:

Trip Planner

Search our weather history database for the weather conditions in past years. The results will help you decide how hot, cold, wet, or windy it might be!

Date:

Astronomy

Jan. 19, 2013 Rise Set
Actual Time 7:17 AM EST 5:21 PM EST
Civil Twilight 6:49 AM EST 5:49 PM EST
Nautical Twilight 6:18 AM EST 6:20 PM EST
Astronomical Twilight 5:47 AM EST 6:51 PM EST
Moon 11:44 AM EST (1/19) 12:52 AM EST (1/19)
Length of Visible Light 10h 59m
Length of Day
10h 03m
First Quarter, 57% of the Moon is Illuminated
Jan 19
First Quarter
Jan 26
Full
Feb 3
Last Quarter
Feb 10
New
Feb 17
First Quarter

Hourly Weather History & Observations

Time (EST) Temp. Windchill Dew Point Humidity Pressure Visibility Wind Dir Wind Speed Gust Speed Precip Events Conditions
12:15 AM 26.6 °F - 24.4 °F 92% 30.52 in 10.0 mi Calm Calm - N/A   Clear
12:35 AM 25.5 °F - 23.4 °F 92% 30.52 in 10.0 mi Calm Calm - N/A   Clear
12:55 AM 25.7 °F - 23.5 °F 92% 30.53 in 10.0 mi Calm Calm - N/A   Clear
1:15 AM 25.3 °F - 23.0 °F 91% 30.53 in 10.0 mi Calm Calm - N/A   Clear
1:35 AM 26.1 °F - 23.9 °F 92% 30.52 in 10.0 mi Calm Calm - N/A   Clear
1:55 AM 26.6 °F - 24.4 °F 92% 30.52 in 10.0 mi Calm Calm - N/A   Clear
2:15 AM 26.4 °F - 23.9 °F 90% 30.51 in 10.0 mi Calm Calm - N/A   Clear
2:35 AM 25.3 °F - 23.0 °F 91% 30.51 in 10.0 mi Calm Calm - N/A   Clear
2:55 AM 25.3 °F - 23.0 °F 91% 30.51 in 10.0 mi Calm Calm - N/A   Clear
3:15 AM 25.3 °F - 23.0 °F 91% 30.51 in 10.0 mi Calm Calm - N/A   Clear
3:35 AM 25.3 °F - 23.0 °F 91% 30.51 in 10.0 mi Calm Calm - N/A   Clear
3:55 AM 25.3 °F - 23.0 °F 91% 30.50 in 10.0 mi Calm Calm - N/A   Clear
4:15 AM 25.3 °F - 23.0 °F 91% 30.49 in 10.0 mi Calm Calm - N/A   Clear
4:35 AM 25.3 °F - 23.0 °F 91% 30.48 in 10.0 mi Calm Calm - N/A   Clear
4:55 AM 25.3 °F - 23.0 °F 91% 30.48 in 10.0 mi Calm Calm - N/A   Clear
5:15 AM 25.3 °F - 23.0 °F 91% 30.48 in 10.0 mi Calm Calm - N/A   Clear
5:35 AM 25.3 °F - 23.0 °F 91% 30.48 in 10.0 mi Calm Calm - N/A   Clear
5:55 AM 25.3 °F - 23.0 °F 91% 30.48 in 10.0 mi Calm Calm - N/A   Clear
6:15 AM 25.3 °F - 23.4 °F 92% 30.48 in 10.0 mi Calm Calm - N/A   Clear
6:35 AM 25.3 °F - 23.0 °F 91% 30.49 in 10.0 mi Calm Calm - N/A   Clear
8:15 AM 26.2 °F - 24.1 °F 92% 30.48 in 10.0 mi Calm Calm - N/A   Clear
8:55 AM 32.2 °F - 29.1 °F 88% 30.49 in 10.0 mi Calm Calm - N/A   Clear
9:15 AM 32.7 °F - 28.9 °F 86% 30.49 in 10.0 mi Calm Calm - N/A   Clear
9:35 AM 35.1 °F 31.0 °F 29.7 °F 81% 30.50 in 10.0 mi SSW 4.6 mph - N/A   Clear
10:55 AM 43.5 °F - 31.3 °F 62% 30.46 in 10.0 mi Calm Calm - N/A   Clear
11:15 AM 45.1 °F 43.7 °F 31.5 °F 59% 30.44 in 10.0 mi SSW 3.5 mph - N/A   Clear
11:35 AM 45.1 °F 42.8 °F 29.8 °F 55% 30.42 in 10.0 mi South 4.6 mph - N/A   Clear
11:55 AM 45.1 °F 43.7 °F 29.5 °F 54% 30.40 in 10.0 mi SSW 3.5 mph - N/A   Clear
12:15 PM 47.3 °F - 27.1 °F 46% 30.38 in 10.0 mi Calm Calm - N/A   Clear
12:35 PM 50.0 °F - 28.2 °F 43% 30.37 in 10.0 mi South 3.5 mph - N/A   Clear
12:55 PM 50.0 °F - 30.2 °F 47% 30.35 in 10.0 mi Calm Calm - N/A   Clear
1:15 PM 50.0 °F - 26.4 °F 40% 30.34 in 10.0 mi Calm Calm - N/A   Clear
1:35 PM 50.0 °F - 24.3 °F 37% 30.32 in 10.0 mi South 5.8 mph - N/A   Clear
1:55 PM 50.5 °F - 24.1 °F 36% 30.31 in 10.0 mi Calm Calm - N/A   Clear
2:55 PM 52.7 °F - 24.1 °F 33% 30.28 in 10.0 mi Calm Calm - N/A   Clear
3:15 PM 52.7 °F - 24.6 °F 34% 30.27 in 10.0 mi Calm Calm - N/A   Clear
3:35 PM 52.7 °F - 24.8 °F 34% 30.27 in 10.0 mi SSW 3.5 mph - N/A   Clear
3:55 PM 52.7 °F - 24.3 °F 33% 30.26 in 10.0 mi SSW 3.5 mph - N/A   Clear
4:15 PM 50.0 °F - 27.3 °F 41% 30.25 in 10.0 mi Calm Calm - N/A   Clear
4:35 PM 50.0 °F - 28.0 °F 43% 30.25 in 10.0 mi Calm Calm - N/A   Clear
4:55 PM 46.2 °F - 32.4 °F 58% 30.25 in 10.0 mi Calm Calm - N/A   Clear
5:15 PM 45.1 °F - 32.9 °F 62% 30.24 in 10.0 mi Calm Calm - N/A   Clear
5:35 PM 45.1 °F - 34.5 °F 66% 30.24 in 10.0 mi Calm Calm - N/A   Clear
5:55 PM 41.5 °F - 31.6 °F 68% 30.23 in 10.0 mi Calm Calm - N/A   Clear
6:15 PM 39.2 °F - 30.9 °F 72% 30.23 in 10.0 mi Calm Calm - N/A   Clear
6:35 PM 37.8 °F - 31.1 °F 77% 30.23 in 10.0 mi Calm Calm - N/A   Clear
6:55 PM 36.7 °F - 31.1 °F 80% 30.24 in 10.0 mi Calm Calm - N/A   Clear
7:15 PM 35.1 °F - 30.9 °F 85% 30.24 in 10.0 mi Calm Calm - N/A   Clear
7:35 PM 35.1 °F - 31.6 °F 87% 30.24 in 10.0 mi Calm Calm - N/A   Clear
7:55 PM 32.7 °F - 29.7 °F 88% 30.24 in 10.0 mi Calm Calm - N/A   Clear
8:15 PM 32.5 °F - 29.7 °F 89% 30.24 in 10.0 mi Calm Calm - N/A   Clear
8:35 PM 32.5 °F - 30.0 °F 90% 30.23 in 10.0 mi Calm Calm - N/A   Clear
8:55 PM 32.5 °F - 30.0 °F 90% 30.22 in 10.0 mi Calm Calm - N/A   Clear
9:15 PM 32.5 °F - 30.2 °F 91% 30.22 in 10.0 mi Calm Calm - N/A   Clear
9:35 PM 32.4 °F - 30.0 °F 91% 30.21 in 10.0 mi Calm Calm - N/A   Clear
9:55 PM 32.5 °F - 30.2 °F 91% 30.21 in 10.0 mi Calm Calm - N/A   Clear
10:15 PM 30.4 °F - 28.0 °F 91% 30.20 in 10.0 mi Calm Calm - N/A   Clear
10:35 PM 30.2 °F - 27.9 °F 91% 30.19 in 10.0 mi Calm Calm - N/A   Clear
10:55 PM 32.5 °F - 30.2 °F 91% 30.18 in 10.0 mi Calm Calm - N/A   Clear
11:15 PM 32.5 °F - 30.0 °F 90% 30.17 in 10.0 mi Calm Calm - N/A   Clear
11:35 PM 32.5 °F - 30.0 °F 90% 30.16 in 10.0 mi Calm Calm - N/A   Clear
11:55 PM 35.1 °F - 32.0 °F 89% 30.15 in 10.0 mi Calm Calm - N/A   Clear